This is the latest recevied weather packets stored in our database for station/object CA4LJZ-10. If no packets are shown the sender has not sent any weather packets the latest 10 day(s).
| Time | Temp. | Humidity | Pressure | Rain* | Wind** | Luminosity | Snow |
|---|---|---|---|---|---|---|---|
| 1777813460 | 31.11° C | 23% | 955.5 hPa | - | - | - | - |
| 1777812559 | 27.22° C | 28% | 955.7 hPa | - | - | - | - |
| 1777811658 | 15° C | 51% | 955.5 hPa | - | - | - | - |
| 1777810757 | 11.11° C | 60% | 955.1 hPa | - | - | - | - |
| 1777809856 | 11.11° C | 61% | 954.9 hPa | - | - | - | - |
| 1777808955 | 10.56° C | 61% | 954.9 hPa | - | - | - | - |
| 1777808054 | 10.56° C | 62% | 954.7 hPa | - | - | - | - |
| 1777807153 | 10.56° C | 62% | 954.5 hPa | - | - | - | - |
| 1777806252 | 10.56° C | 62% | 954.5 hPa | - | - | - | - |
| 1777805351 | 11.11° C | 61% | 954.4 hPa | - | - | - | - |
| 1777804451 | 11.11° C | 61% | 954.3 hPa | - | - | - | - |
| 1777803550 | 12.78° C | 61% | 954.4 hPa | - | - | - | - |
| 1777802673 | 10.56° C | 61% | 954.6 hPa | - | - | - | - |
| 1777801772 | 11.11° C | 60% | 954.6 hPa | - | - | - | - |
| 1777800871 | 11.67° C | 58% | 954.2 hPa | - | - | - | - |
| 1777799970 | 12.22° C | 58% | 954.2 hPa | - | - | - | - |
| 1777799070 | 12.22° C | 58% | 954.1 hPa | - | - | - | - |
| 1777798168 | 12.22° C | 59% | 954 hPa | - | - | - | - |
| 1777797267 | 11.67° C | 59% | 954.1 hPa | - | - | - | - |
| 1777796366 | 12.22° C | 58% | 954 hPa | - | - | - | - |
| 1777795480 | 12.22° C | 58% | 954.2 hPa | - | - | - | - |
| 1777795465 | 12.22° C | 58% | 954.2 hPa | - | - | - | - |
| 1777794564 | 12.22° C | 58% | 954.5 hPa | - | - | - | - |
| 1777793662 | 12.22° C | 57% | 954.9 hPa | - | - | - | - |
| 1777792761 | 12.78° C | 57% | 955 hPa | - | - | - | - |
* Rain since midnight (hover to see other rain measurements)
** Current wind speed in m/s (hover to see current wind gust speed)